GW4311 Weather Reports


Display with metric or nautical units.
time (UTC)temp
F
wind
direction
speed
MPH
gust
MPH
rain 1hr
in
rain 24hr
in
rain mn
in
humidity
%
barometer
mb
20260507104537 61 334 3.0 9.0 0.00 0.00 0.00 67 1016.0
20260507103032 61 304 8.0 12.0 0.00 0.00 0.00 71 1016.1
20260507101528 61 38 3.0 7.0 0.00 0.00 0.00 70 1015.9
20260507100032 60 342 4.0 11.0 0.00 0.00 0.00 72 1016.0
20260507094520 60 347 1.0 7.0 0.00 0.00 0.00 71 1016.2
20260507093015 59 265 2.0 10.0 0.00 0.00 0.00 69 1016.2
20260507091514 58 342 2.0 8.0 0.00 0.00 0.00 77 1016.1
20260507090008 58 282 3.0 6.0 0.00 0.00 0.00 77 1016.1
20260507084503 57 164 0.0 3.0 0.00 0.00 0.00 81 1016.1
20260507083100 56 115 2.0 5.0 0.00 0.00 0.00 80 1015.9
20260507081556 56 291 1.0 7.0 0.00 0.00 0.00 80 1016.1
20260507074546 54 41 3.0 7.0 0.00 0.01 0.00 87 1016.0
20260507073042 50 51 3.0 6.0 0.00 0.01 0.00 89 1016.0
20260507071538 49 9 2.0 6.0 0.00 0.01 0.00 90 1015.9
20260507070036 48 55 3.0 5.0 0.00 0.01 0.00 92 1015.8
20260507064546 46 24 2.0 6.0 0.00 0.01 0.00 95 1016.0
20260507063024 44 44 1.0 5.0 0.00 0.01 0.00 100 1015.8
20260507061519 42 65 1.0 4.0 0.00 0.01 0.00 100 1015.6
20260507060020 41 34 2.0 5.0 0.00 0.01 0.00 100 1015.7
20260507054514 40 325 0.0 4.0 0.00 0.02 0.00 100 1015.7
20260507053013 40 323 1.0 3.0 0.00 0.02 0.00 100 1015.7
20260507051510 40 265 0.0 2.0 0.00 0.02 0.00 99 1015.4
20260507050019 40 44 0.0 2.0 0.00 0.02 0.00 99 1015.2
20260507044504 40 9 1.0 2.0 0.00 0.02 0.00 98 1015.3
20260507043002 40 9 0.0 2.0 0.00 0.02 0.00 98 1015.0
20260507041600 40 51 1.0 2.0 0.00 0.02 0.00 98 1015.1
20260507040055 41 61 1.0 2.0 0.00 0.02 0.00 98 1015.1
20260507034552 42 93 0.0 2.0 0.00 0.02 0.00 98 1015.0
20260507033051 42 325 0.0 2.0 0.00 0.02 0.00 98 1014.9
20260507031548 43 93 0.0 2.0 0.00 0.02 0.00 98 1014.8
20260507030048 43 41 1.0 5.0 0.00 0.02 0.00 99 1014.8
20260507024547 43 336 2.0 3.0 0.00 0.02 0.00 100 1014.9
20260507023045 44 291 1.0 2.0 0.00 0.02 0.00 100 1014.9
20260507021544 44 9 1.0 2.0 0.00 0.02 0.00 100 1014.8
20260507020100 44 325 0.0 2.0 0.00 0.02 0.00 100 1014.7
20260507014546 44 334 0.0 1.0 0.00 0.02 0.00 100 1014.5
20260507013042 44 178 0.0 1.0 0.00 0.02 0.00 100 1014.5
20260507011541 43 309 0.0 1.0 0.00 0.02 0.00 100 1014.4
20260507010056 43 309 0.0 2.0 0.00 0.02 0.00 100 1014.6
20260507004537 43 309 0.0 2.0 0.00 0.02 0.00 99 1014.6
20260507003039 43 279 0.0 1.0 0.00 0.02 0.00 99 1014.6
20260507001535 43 93 0.0 1.0 0.00 0.02 0.00 99 1014.5
20260507000035 43 9 1.0 2.0 0.00 0.02 0.00 99 1014.4
20260506234533 43 178 0.0 1.0 0.00 0.02 0.00 98 1014.4
20260506233034 43 221 0.0 2.0 0.00 0.02 0.00 98 1014.5
20260506231530 43 309 0.0 2.0 0.00 0.02 0.00 97 1014.4
20260506230029 44 309 0.0 1.0 0.00 0.02 0.00 97 1014.4
20260506224525 44 137 1.0 2.0 0.00 0.02 0.00 96 1014.5
20260506223024 45 221 0.0 2.0 0.00 0.02 0.00 95 1014.4
20260506221520 46 279 0.0 2.0 0.00 0.02 0.00 94 1014.3
20260506220018 47 309 0.0 1.0 0.00 0.02 0.00 91 1014.1
20260506214514 48 57 1.0 2.0 0.00 0.02 0.02 89 1014.2
20260506213012 48 41 2.0 5.0 0.00 0.02 0.02 88 1014.1
20260506211510 49 41 1.0 4.0 0.00 0.02 0.02 88 1014.1
20260506210008 49 360 2.0 6.0 0.00 0.02 0.02 89 1013.9
20260506204507 49 329 4.0 7.0 0.00 0.02 0.02 90 1013.8
20260506203005 49 330 4.0 10.0 0.00 0.02 0.02 91 1013.7
20260506201509 50 298 3.0 7.0 0.00 0.02 0.02 93 1013.4
20260506200001 52 9 1.0 4.0 0.00 0.02 0.02 93 1013.4
20260506194600 53 334 0.0 2.0 0.00 0.02 0.02 90 1012.9
20260506193059 54 291 1.0 3.0 0.00 0.02 0.02 88 1012.8
20260506191608 55 301 0.0 4.0 0.00 0.02 0.02 86 1012.6
20260506190056 55 265 1.0 6.0 0.00 0.02 0.02 85 1012.5
20260506184608 56 275 3.0 7.0 0.00 0.02 0.02 84 1012.5
20260506183053 56 289 3.0 6.0 0.00 0.02 0.02 83 1012.4
20260506181550 56 249 3.0 7.0 0.00 0.02 0.02 82 1012.2
20260506180051 57 298 2.0 6.0 0.00 0.02 0.02 82 1012.0
20260506174549 57 316 2.0 7.0 0.00 0.02 0.02 80 1011.9
20260506173049 58 294 3.0 7.0 0.00 0.02 0.02 77 1011.7
20260506171556 59 310 5.0 9.0 0.00 0.02 0.02 74 1011.8
20260506170051 59 306 5.0 8.0 0.00 0.02 0.02 75 1011.7
20260506164548 59 334 3.0 7.0 0.00 0.02 0.02 76 1011.7
20260506163046 59 296 4.0 9.0 0.00 0.02 0.02 76 1011.8
20260506161546 59 298 4.0 7.0 0.00 0.02 0.02 76 1011.9
20260506160058 59 344 5.0 10.0 0.00 0.02 0.02 75 1011.7
20260506154543 58 298 5.0 11.0 0.00 0.08 0.02 75 1011.7
20260506153043 59 328 6.0 12.0 0.00 0.08 0.02 74 1011.8
20260506151543 59 339 5.0 9.0 0.00 0.08 0.02 74 1011.9
20260506150040 59 319 7.0 12.0 0.00 0.08 0.02 76 1011.8
20260506144553 59 26 6.0 13.0 0.00 0.08 0.02 77 1011.7
20260506143038 58 342 4.0 10.0 0.00 0.08 0.02 76 1011.9
20260506141535 58 325 5.0 12.0 0.00 0.08 0.02 80 1011.9
20260506140034 57 333 7.0 12.0 0.00 0.08 0.02 82 1012.0
20260506134529 57 11 6.0 11.0 0.00 0.08 0.02 82 1011.9
20260506133031 56 316 7.0 11.0 0.00 0.08 0.02 84 1011.9
20260506131530 56 9 6.0 13.0 0.00 0.08 0.02 83 1012.0
20260506130024 56 316 7.0 13.0 0.00 0.08 0.02 84 1011.7
20260506124523 56 305 5.0 9.0 0.00 0.08 0.02 85 1011.6
20260506123021 55 43 6.0 10.0 0.00 0.08 0.02 87 1011.5
20260506121520 55 311 6.0 10.0 0.00 0.08 0.02 86 1011.6
20260506120020 55 13 3.0 8.0 0.00 0.08 0.02 87 1011.6
20260506114532 55 19 6.0 13.0 0.00 0.09 0.02 85 1011.4
20260506113016 55 315 6.0 10.0 0.00 0.09 0.02 86 1011.2
20260506111515 55 346 4.0 9.0 0.00 0.09 0.02 89 1011.3
20260506110020 55 348 5.0 13.0 0.00 0.09 0.02 87 1011.4